User: anonymous   Login
Location: Acton
(51.4942°N, 0.2232°W)
Time: 03:37:44
(UTC+00:00)
Language:

Resurs 01 Rocket - Orbit

View from above orbital plane
View from above orbital plane
View from above satellite
View from above satellite

Ground track
Ground track

The orbit data is extracted from the following two-line orbital elements,

1 23343U 94074B   20339.42680120  .00000077  00000-0  18327-4 0  9998
2 23343  97.9769  30.7137 0006141 333.7802  36.6810 14.76850016403710
Epoch (UTC): 04 December 2020 10:14:35
Eccentricity: 0.0006141
inclination: 97.9769°
perigee height: 635 km
apogee height: 643 km
right ascension of ascending node: 30.7137°
argument of perigee: 333.7802°
revolutions per day: 14.76850016
mean anomaly at epoch: 36.6810°
orbit number at epoch: 40371

The dashed part of the orbit path shows where the satellite is in the earth's shadow,  

DLR